• In Deutschland
  • Länderverzeichnis
  • Für 7 Tage
  • Wassertemperatur
  • Satellitenkarten
  • Wetterkarte
  • Widgets
  • user-avatar
    Anmelden

    Stündliche Wetter Lüdenscheid

    Heute, 22 Juni, Freitag

    Zeit Temperatur Niederschläge Wind Luftdruck Luftfeuchtigkeit
    00:00 +7°C° 0 mm 4 m/S 731 mmHg 72%
    01:00 +7°C° 0 mm 4 m/S 731 mmHg 74%
    02:00 +7°C° 0 mm 4 m/S 731 mmHg 74%
    03:00 +7°C° 0 mm 4 m/S 731 mmHg 75%
    04:00 +7°C° 0 mm 4 m/S 730 mmHg 76%
    05:00 +7°C° 0,1 mm 5 m/S 731 mmHg 76%
    06:00 +8°C° 0,1 mm 5 m/S 731 mmHg 75%
    07:00 +8°C° 0,1 mm 5 m/S 731 mmHg 75%
    08:00 +8°C° 0,2 mm 5 m/S 731 mmHg 74%
    09:00 +9°C° 0,2 mm 5 m/S 731 mmHg 73%
    10:00 +9°C° 0,2 mm 5 m/S 731 mmHg 71%
    11:00 +10°C° 0,1 mm 5 m/S 731 mmHg 69%
    12:00 +12°C° 0,1 mm 5 m/S 732 mmHg 67%
    13:00 +13°C° 0,1 mm 5 m/S 732 mmHg 65%
    14:00 +13°C° 0,2 mm 5 m/S 732 mmHg 65%
    15:00 +13°C° 0,2 mm 5 m/S 732 mmHg 65%
    16:00 +13°C° 0,2 mm 5 m/S 732 mmHg 64%
    17:00 +13°C° 0,1 mm 5 m/S 732 mmHg 67%
    18:00 +12°C° 0,1 mm 5 m/S 732 mmHg 69%
    19:00 +12°C° 0,1 mm 4 m/S 732 mmHg 72%
    20:00 +11°C° 0 mm 4 m/S 733 mmHg 75%
    21:00 +10°C° 0 mm 3 m/S 733 mmHg 78%
    22:00 +9°C° 0 mm 3 m/S 733 mmHg 82%
    23:00 +8°C° 0 mm 3 m/S 733 mmHg 83%

    Morgen, 23 Juni, Samstag

    Zeit Temperatur Niederschläge Wind Luftdruck Luftfeuchtigkeit
    00:00 +8°C° 0 mm 3 m/S 733 mmHg 85%
    01:00 +7°C° 0 mm 2 m/S 733 mmHg 86%
    02:00 +7°C° 0 mm 2 m/S 733 mmHg 87%
    03:00 +6°C° 0 mm 2 m/S 733 mmHg 89%
    04:00 +6°C° 0 mm 2 m/S 733 mmHg 90%
    05:00 +7°C° 0 mm 3 m/S 733 mmHg 88%
    06:00 +8°C° 0 mm 3 m/S 733 mmHg 86%
    07:00 +9°C° 0 mm 3 m/S 733 mmHg 84%
    08:00 +10°C° 0,1 mm 3 m/S 733 mmHg 81%
    09:00 +10°C° 0,1 mm 3 m/S 733 mmHg 78%
    10:00 +11°C° 0,1 mm 3 m/S 733 mmHg 75%
    11:00 +12°C° 0,1 mm 3 m/S 733 mmHg 72%
    12:00 +13°C° 0,1 mm 4 m/S 733 mmHg 69%
    13:00 +13°C° 0,1 mm 4 m/S 733 mmHg 65%
    14:00 +14°C° 0,1 mm 4 m/S 733 mmHg 66%
    15:00 +14°C° 0,1 mm 4 m/S 732 mmHg 67%
    16:00 +14°C° 0,1 mm 4 m/S 732 mmHg 67%
    17:00 +14°C° 0,2 mm 3 m/S 732 mmHg 72%
    18:00 +13°C° 0,2 mm 3 m/S 732 mmHg 77%
    19:00 +13°C° 0,2 mm 2 m/S 732 mmHg 81%
    20:00 +13°C° 0,1 mm 2 m/S 732 mmHg 84%
    21:00 +12°C° 0,1 mm 2 m/S 732 mmHg 88%
    22:00 +11°C° 0,1 mm 1 m/S 732 mmHg 91%
    23:00 +11°C° 0 mm 1 m/S 732 mmHg 91%

    übermorgen, 24 Juni, Sonntag

    Zeit Temperatur Niederschläge Wind Luftdruck Luftfeuchtigkeit
    00:00 +11°C° 0 mm 1 m/S 732 mmHg 92%
    01:00 +10°C° 0 mm 1 m/S 732 mmHg 93%
    02:00 +10°C° 0 mm 1 m/S 731 mmHg 93%
    03:00 +9°C° 0 mm 1 m/S 731 mmHg 94%
    04:00 +9°C° 0 mm 1 m/S 731 mmHg 94%
    05:00 +9°C° 0 mm 1 m/S 731 mmHg 91%
    06:00 +10°C° 0 mm 1 m/S 731 mmHg 88%
    07:00 +11°C° 0 mm 1 m/S 731 mmHg 85%
    08:00 +12°C° 0 mm 2 m/S 732 mmHg 79%
    09:00 +13°C° 0 mm 2 m/S 732 mmHg 73%
    10:00 +14°C° 0 mm 2 m/S 732 mmHg 68%
    11:00 +15°C° 0 mm 2 m/S 732 mmHg 67%
    12:00 +15°C° 0 mm 2 m/S 732 mmHg 66%
    13:00 +16°C° 0 mm 2 m/S 732 mmHg 65%
    14:00 +16°C° 0,1 mm 3 m/S 732 mmHg 65%
    15:00 +16°C° 0,1 mm 3 m/S 732 mmHg 65%
    16:00 +17°C° 0,1 mm 3 m/S 732 mmHg 64%
    17:00 +16°C° 0,1 mm 3 m/S 732 mmHg 68%
    18:00 +16°C° 0,1 mm 3 m/S 731 mmHg 71%
    19:00 +14°C° 0,1 mm 3 m/S 731 mmHg 75%
    20:00 +14°C° 0 mm 2 m/S 731 mmHg 80%
    21:00 +13°C° 0 mm 2 m/S 732 mmHg 85%
    22:00 +12°C° 0 mm 2 m/S 732 mmHg 90%
    23:00 +12°C° 0 mm 2 m/S 732 mmHg 91%

    25 Juni, Montag

    Zeit Temperatur Niederschläge Wind Luftdruck Luftfeuchtigkeit
    00:00 +12°C° 0 mm 2 m/S 732 mmHg 92%
    01:00 +12°C° 0 mm 1 m/S 732 mmHg 93%
    02:00 +12°C° 0,1 mm 1 m/S 732 mmHg 93%
    03:00 +12°C° 0,1 mm 1 m/S 731 mmHg 94%
    04:00 +12°C° 0,1 mm 1 m/S 731 mmHg 94%
    05:00 +12°C° 0,1 mm 1 m/S 731 mmHg 94%
    06:00 +12°C° 0,1 mm 2 m/S 732 mmHg 93%
    07:00 +12°C° 0,1 mm 2 m/S 732 mmHg 93%
    08:00 +13°C° 0,1 mm 2 m/S 732 mmHg 90%
    09:00 +14°C° 0,1 mm 2 m/S 732 mmHg 86%
    10:00 +14°C° 0,1 mm 2 m/S 732 mmHg 83%
    11:00 +16°C° 0 mm 2 m/S 732 mmHg 76%
    12:00 +17°C° 0 mm 2 m/S 732 mmHg 69%
    13:00 +18°C° 0 mm 2 m/S 732 mmHg 62%
    14:00 +19°C° 0 mm 3 m/S 732 mmHg 60%
    15:00 +20°C° 0 mm 3 m/S 732 mmHg 57%
    16:00 +20°C° 0 mm 3 m/S 732 mmHg 54%
    17:00 +20°C° 0 mm 3 m/S 732 mmHg 58%
    18:00 +19°C° 0 mm 3 m/S 732 mmHg 62%
    19:00 +19°C° 0 mm 2 m/S 732 mmHg 66%
    20:00 +17°C° 0 mm 2 m/S 732 mmHg 72%
    21:00 +16°C° 0 mm 2 m/S 732 mmHg 77%
    22:00 +14°C° 0 mm 1 m/S 732 mmHg 83%
    23:00 +13°C° 0 mm 1 m/S 732 mmHg 84%

    26 Juni, Dienstag

    Zeit Temperatur Niederschläge Wind Luftdruck Luftfeuchtigkeit
    00:00 +13°C° 0 mm 1 m/S 732 mmHg 86%
    01:00 +12°C° 0 mm 1 m/S 732 mmHg 87%
    02:00 +12°C° 0 mm 1 m/S 732 mmHg 88%
    03:00 +11°C° 0 mm 1 m/S 732 mmHg 89%
    04:00 +11°C° 0 mm 1 m/S 731 mmHg 89%
    05:00 +12°C° 0 mm 1 m/S 732 mmHg 85%
    06:00 +14°C° 0 mm 1 m/S 732 mmHg 81%
    07:00 +14°C° 0 mm 0 m/S 732 mmHg 77%
    08:00 +18°C° 0 mm 1 m/S 732 mmHg 69%
    09:00 +20°C° 0 mm 1 m/S 732 mmHg 60%
    10:00 +22°C° 0 mm 1 m/S 732 mmHg 52%
    11:00 +23°C° 0 mm 1 m/S 732 mmHg 48%
    12:00 +24°C° 0 mm 1 m/S 732 mmHg 44%
    13:00 +25°C° 0 mm 2 m/S 732 mmHg 40%
    14:00 +25°C° 0 mm 2 m/S 732 mmHg 41%
    15:00 +25°C° 0 mm 2 m/S 732 mmHg 42%
    16:00 +25°C° 0 mm 2 m/S 731 mmHg 43%
    17:00 +24°C° 0 mm 2 m/S 731 mmHg 48%
    18:00 +24°C° 0 mm 2 m/S 731 mmHg 54%
    19:00 +23°C° 0 mm 2 m/S 731 mmHg 59%
    20:00 +20°C° 0 mm 2 m/S 731 mmHg 64%
    21:00 +18°C° 0 mm 2 m/S 731 mmHg 69%
    22:00 +17°C° 0 mm 2 m/S 731 mmHg 75%
    23:00 +16°C° 0 mm 2 m/S 731 mmHg 77%

    27 Juni, Mittwoch

    Zeit Temperatur Niederschläge Wind Luftdruck Luftfeuchtigkeit
    00:00 +16°C° 0 mm 2 m/S 731 mmHg 79%
    01:00 +15°C° 0 mm 1 m/S 731 mmHg 81%
    02:00 +15°C° 0 mm 1 m/S 731 mmHg 81%
    03:00 +14°C° 0 mm 1 m/S 731 mmHg 82%
    04:00 +14°C° 0 mm 1 m/S 731 mmHg 82%
    05:00 +15°C° 0 mm 1 m/S 731 mmHg 77%
    06:00 +18°C° 0 mm 1 m/S 732 mmHg 72%
    07:00 +19°C° 0 mm 1 m/S 732 mmHg 67%
    08:00 +21°C° 0 mm 1 m/S 732 mmHg 61%
    09:00 +23°C° 0 mm 2 m/S 732 mmHg 54%
    10:00 +24°C° 0 mm 2 m/S 732 mmHg 48%
    11:00 +25°C° 0 mm 2 m/S 732 mmHg 45%
    12:00 +26°C° 0 mm 2 m/S 732 mmHg 43%
    13:00 +27°C° 0 mm 3 m/S 732 mmHg 41%
    14:00 +27°C° 0 mm 3 m/S 732 mmHg 41%
    15:00 +27°C° 0 mm 3 m/S 731 mmHg 42%
    16:00 +27°C° 0 mm 3 m/S 731 mmHg 42%
    17:00 +27°C° 0 mm 3 m/S 731 mmHg 48%
    18:00 +26°C° 0 mm 3 m/S 731 mmHg 53%
    19:00 +25°C° 0 mm 2 m/S 731 mmHg 58%
    20:00 +23°C° 0 mm 2 m/S 731 mmHg 63%
    21:00 +21°C° 0 mm 2 m/S 731 mmHg 68%
    22:00 +19°C° 0 mm 2 m/S 732 mmHg 73%
    23:00 +18°C° 0 mm 2 m/S 732 mmHg 75%
    Mehr zeigen